This is the latest recevied weather packets stored in our database for station/object K9ABJ. If no packets are shown the sender has not sent any weather packets the latest 10 day(s).
| Time | Temp. | Humidity | Pressure | Rain* | Wind** | Luminosity | Snow |
|---|---|---|---|---|---|---|---|
| 1788136071 | 76° F | 83% | 762.5 mmHg | 0 in | - | 0 W/m² | - |
| 1788135771 | 76° F | 83% | 762.5 mmHg | 0 in | - | 0 W/m² | - |
| 1788135466 | 76° F | 83% | 762.4 mmHg | 0 in | - | 0 W/m² | - |
| 1788135162 | 76° F | 82% | 762.7 mmHg | 0 in | - | 0 W/m² | - |
| 1788134859 | 77° F | 81% | 762.7 mmHg | 0 in | - | 0 W/m² | - |
| 1788134559 | 77° F | 81% | 762.6 mmHg | 0 in | - | 1 W/m² | - |
| 1788134257 | 77° F | 80% | 762.7 mmHg | 0 in | - | 4 W/m² | - |
| 1788133952 | 77° F | 80% | 762.7 mmHg | 0 in | - | 6 W/m² | - |
| 1788133647 | 77° F | 80% | 762.8 mmHg | 0 in | - | 7 W/m² | - |
| 1788133343 | 77° F | 80% | 762.9 mmHg | 0 in | - | 10 W/m² | - |
| 1788133039 | 78° F | 80% | 762.9 mmHg | 0 in | - | 12 W/m² | - |
| 1788132734 | 78° F | 79% | 762.8 mmHg | 0 in | - | 16 W/m² | - |
| 1788132430 | 78° F | 78% | 763.1 mmHg | 0 in | - | 21 W/m² | - |
| 1788132125 | 78° F | 77% | 763.1 mmHg | 0 in | - | 27 W/m² | - |
| 1788131822 | 79° F | 76% | 763 mmHg | 0 in | - | 33 W/m² | - |
| 1788131521 | 78° F | 77% | 762.9 mmHg | 0 in | - | 38 W/m² | - |
| 1788131216 | 79° F | 77% | 762.9 mmHg | 0 in | - | 43 W/m² | - |
| 1788130917 | 79° F | 76% | 763 mmHg | 0 in | - | 51 W/m² | - |
| 1788130612 | 79° F | 76% | 763 mmHg | 0 in | - | 59 W/m² | - |
| 1788130312 | 79° F | 75% | 763 mmHg | 0 in | - | 70 W/m² | - |
| 1788130011 | 80° F | 74% | 763.2 mmHg | 0 in | - | 78 W/m² | - |
| 1788129707 | 80° F | 73% | 763.1 mmHg | 0 in | - | 82 W/m² | - |
| 1788129404 | 80° F | 72% | 763.1 mmHg | 0 in | - | 86 W/m² | - |
| 1788129103 | 81° F | 71% | 763.1 mmHg | 0 in | - | 97 W/m² | - |
| 1788128798 | 81° F | 72% | 763.2 mmHg | 0 in | - | 111 W/m² | - |
* Rain latest hour (hover to see other rain measurements)
** Current wind speed in m/s (hover to see current wind gust speed)